Regional Weather Roundup
Issued by NWS

Home | Current Version | Previous Version | Text Only | Print | Product List | Glossary On
Versions: 1 2 3 4 5 6 7 8 9 10 11 12 13 14 15 16 17 18 19 20 21 22 23 24 25 26 27 28 29 30 31 32 33 34 35 36 37 38 39 40 41 42 43 44 45 46 47 48 49 50
848
ASUS44 KJAN 021003
RWRMS

MISSISSIPPI HOURLY WEATHER ROUNDUP
NATIONAL WEATHER SERVICE JACKSON MS
400 AM CST MON MAR 02 2015

NOTE: "FAIR: INDICATES FEW OR NO CLOUDS BELOW 12,000 FEET WITH NO
SIGNIFICANT WEATHER AND/OR OBSTRUCTIONS TO VISIBILITY.

MSZ001>002-007>008-010>013-018>021-025>028-034>036-021100-
NORTHWEST MISSISSIPPI

CITY           SKY/WX    TMP DP  RH WIND       PRES   REMARKS
CLARKSDALE     CLOUDY    37  37 100 N17       30.40S WCI  28
CLEVELAND      RAIN      38  38 100 N16       30.37R WCI  29
GREENWOOD        N/A    N/A N/A N/A MISG      30.33R
GREENVILLE     LGT RAIN  40  38  93 N14       30.35R FOG     WCI  32
OLIVE BRANCH   CLOUDY    34  34 100 NE13      30.41S WCI  25
OXFORD         CLOUDY    37  37 100 N13       30.39R FOG     WCI  29
TUNICA         CLOUDY    36  34  93 N16       30.41S FOG     WCI  26
$$

MSZ003>006-009-014>017-022>024-029>033-037>039-021100-
NORTHEAST MISSISSIPPI

CITY           SKY/WX    TMP DP  RH WIND       PRES   REMARKS
COLUMBUS AFB   DRIZZLE   52  52 100 N3        30.29S FOG
CORINTH        MIX PCPN  39  37  93 N10       30.39R WCI  32
GOLDN TRIANGLE CLOUDY    52  50  93 N3        30.29R VSB 1
STARKVILLE     HVY RAIN  52  52 100 N3        30.30R VSB 1
TUPELO         CLOUDY    43  40  89 NE17      30.35R FOG
$$

MSZ040-058-021100-
CENTRAL MISSISSIPPI

CITY           SKY/WX    TMP DP  RH WIND       PRES   REMARKS
JACKSON INTL   FOG       54  54 100 N5        30.28R VSB 1/4
JACKSON HAWKNS LGT RAIN  52  51  97 N5        30.28S VSB 1/2
MERIDIAN KEY   FOG       54  54 100 CALM      30.27S VSB 1
MERIDIAN NAS   FOG       54  53  97 E5        30.28S VSB 1/4
VICKSBURG      FOG       45  44  97 N13       30.31S VSB 1
$$

MSZ059>079-021100-
SOUTH MISSISSIPPI

CITY           SKY/WX    TMP DP  RH WIND       PRES   REMARKS
BROOKHAVEN     CLOUDY    57  57 100 CALM      30.27S
HATTIESBURG    CLOUDY    59  58  96 CALM      30.26F
MCCOMB         CLOUDY    60  59  96 CALM      30.24F FOG
NATCHEZ        CLOUDY    46  45  93 N7        30.28R VSB 1/2
PINE BELT      CLOUDY    57  55  94 CALM      30.27S
$$

MSZ080>082-021100-
COASTAL MISSISSIPPI

CITY           SKY/WX    TMP DP  RH WIND       PRES   REMARKS
BILOXI         CLOUDY    57  57 100 E9        30.24F
PASCAGOULA     CLOUDY    57  56  96 SE6       30.25F
GULFPORT       LGT RAIN  57  56  96 E9        30.25F
$$



USA.gov is the U.S. government's official web portal to all federal, state and local government web resources and services.